Seattle, WA
on Friday, January 25, 2013

Friday
Previous Day Next Day
Daily Summary
 ActualAverageRecord
Temperature
Mean Temperature °F 43°F  
Max Temperature 51°F 48°F 58°F (1986)
Min Temperature 37°F 37°F 7°F (1950)
Degree Days
Heating Degree Days 21 22  
Month to date heating degree days 695 578  
Since 1 July heating degree days 2446 2516  
Cooling Degree Days 0 0  
Month to date cooling degree days 0 0  
Year to date cooling degree days 0 0  
Moisture
Dew Point 41°F   
Average Humidity 86    
Maximum Humidity 100    
Minimum Humidity 71    
Precipitation
Precipitation 0.12 in 0.17 in 0.93 in (1993)
Month to date precipitation 3.26 4.62  
Year to date precipitation 3.26 4.62  
Snow
Snow 0.00 in in 7.90 in (1972)
Month to date snowfall T  
Since 1 July snowfall 0.6  
Snow Depth 0.00 in   
Wind
Wind Speed 5 mph   
Max Wind Speed 10 mph   
Max Gust Speed 13 mph   
Visibility 8 miles   
Events Rain   

Key: T is trace of precipitation, MM is missing value
Source: NWS Daily Summary
Time(PST)TemperatureDew PointHumidity Pressure Visibility Wind DirectionWind SpeedGust SpeedPrecipitationEvents Conditions
12:29 AM 42.8°F 41.0°F 93% 30.06 in 2.0 miles SSE 4.6 mph - 0.03 in Rain Light Rain
12:53 AM 42.1°F 41.0°F 96% 30.08 in 2.0 miles SE 5.8 mph - 0.06 in Rain Light Rain
1:27 AM 42.8°F 41.0°F 93% 30.05 in 1.5 miles SE 5.8 mph - 0.02 in Rain Light Rain
1:53 AM 42.1°F 41.0°F 96% 30.07 in 2.0 miles SSE 4.6 mph - 0.03 in Rain Light Rain
2:26 AM 42.8°F 41.0°F 93% 30.05 in 3.0 miles SE 4.6 mph - 0.01 in Rain Light Rain
2:53 AM 43.0°F 42.1°F 97% 30.08 in 3.0 miles SSE 4.6 mph - 0.02 in Rain Light Rain
3:32 AM 42.8°F 42.8°F 100% 30.04 in 5.0 miles South 3.5 mph - 0.01 in Rain Light Rain
3:53 AM 44.1°F 42.1°F 93% 30.07 in 5.0 miles SSE 4.6 mph - 0.01 in   Overcast
4:53 AM 44.1°F 43.0°F 96% 30.06 in 10.0 miles South 4.6 mph - N/A   Overcast
5:53 AM 45.0°F 42.1°F 90% 30.07 in 10.0 miles Calm Calm - N/A   Overcast
6:53 AM 45.0°F 43.0°F 93% 30.07 in 10.0 miles SW 5.8 mph - N/A   Overcast
7:53 AM 45.0°F 43.0°F 93% 30.07 in 10.0 miles SW 6.9 mph - N/A   Mostly Cloudy
8:53 AM 45.0°F 43.0°F 93% 30.07 in 10.0 miles SW 6.9 mph - N/A   Mostly Cloudy
9:53 AM 48.0°F 44.1°F 86% 30.08 in 10.0 miles SW 3.5 mph - N/A   Mostly Cloudy
10:53 AM 48.0°F 44.1°F 86% 30.08 in 10.0 miles SW 3.5 mph - N/A   Overcast
11:53 AM 48.0°F 43.0°F 83% 30.06 in 10.0 miles WSW 5.8 mph - N/A   Mostly Cloudy
12:16 PM 50.0°F 44.6°F 82% 30.02 in 10.0 miles SSW 4.6 mph - N/A   Mostly Cloudy
12:53 PM 50.0°F 43.0°F 77% 30.03 in 10.0 miles SSW 4.6 mph - N/A   Mostly Cloudy
1:53 PM 50.0°F 41.0°F 71% 30.01 in 10.0 miles Variable 4.6 mph - N/A   Mostly Cloudy
2:53 PM 50.0°F 42.1°F 74% 29.99 in 10.0 miles West 5.8 mph - N/A   Mostly Cloudy
3:53 PM 50.0°F 41.0°F 71% 29.99 in 10.0 miles WSW 5.8 mph - N/A   Scattered Clouds
4:53 PM 46.9°F 39.0°F 74% 29.99 in 10.0 miles SW 4.6 mph - N/A   Scattered Clouds
5:53 PM 45.0°F 39.0°F 80% 29.99 in 10.0 miles South 4.6 mph - N/A   Scattered Clouds
6:53 PM 46.0°F 41.0°F 83% 29.98 in 10.0 miles SSE 4.6 mph - N/A   Mostly Cloudy
7:53 PM 44.1°F 39.9°F 85% 29.98 in 10.0 miles South 3.5 mph - N/A   Mostly Cloudy
8:24 PM 44.6°F 39.2°F 81% 29.95 in 10.0 miles WSW 6.9 mph - N/A   Mostly Cloudy
8:53 PM 44.1°F 39.0°F 82% 29.97 in 10.0 miles SW 5.8 mph - N/A   Mostly Cloudy
9:11 PM 44.6°F 37.4°F 76% 29.94 in 10.0 miles SW 3.5 mph - N/A   Overcast
9:20 PM 42.8°F 37.4°F 81% 29.94 in 10.0 miles SSW 4.6 mph - N/A   Scattered Clouds
9:53 PM 41.0°F 37.0°F 86% 29.96 in 10.0 miles SSW 3.5 mph - N/A   Scattered Clouds
10:53 PM 39.9°F 36.0°F 86% 29.96 in 10.0 miles SSW 5.8 mph - N/A   Scattered Clouds
11:53 PM 39.0°F 37.0°F 93% 29.95 in 10.0 miles SSE 5.8 mph - N/A   Overcast
Moon Phase
Jan. 25 Jan. 26 Feb. 03 Feb. 10 Feb. 17
Sunrise:07:43 AM (PST) Moon Rise:04:03 PM (PST)1/25
Sunset:05:00 PM (PST) Moon Set:06:26 AM (PST)1/25

Copyright © 2014 The Weather Underground, Inc.